Hourly Data Report for October 03, 2017

All times are specified in Local Standard Time (LST). Add 1 hour to adjust for Daylight Saving Time where and when it is observed.

ARVIAT A
NUNAVUT

61°05'38.000" N
94°04'18.000" W
10.40 m
2300427
71174
YEK

Download Data

Hourly Data (October 2017)
Hourly Data Report for October 3, 2017
Temp Definition
°C
Dew Point Temp Definition
°C
Rel Hum Definition
%
Wind Dir Definition
10's deg

Wind Spd Definition
km/h
Visibility Definition
km
Stn Press Definition
kPa
Hmdx Definition


Wind Chill Definition


Weather Definition


TIME
00:00 Legend Double Dagger 0.5 -2.4 81 32 24 16.1 101.15     LegendNANA
01:00 Legend Double Dagger 0.1 -2.3 84 31 22 16.1 101.19     LegendNANA
02:00 Legend Double Dagger -0.2 -3.2 80 32 22 16.1 101.22   -6 LegendNANA
03:00 Legend Double Dagger -0.4 -3.4 80 31 26 16.1 101.22   -7 LegendNANA
04:00 Legend Double Dagger -0.6 -3.8 79 30 24 16.1 101.28   -7 LegendNANA
05:00 Legend Double Dagger -1.1 -3.3 85 30 26 16.1 101.33   -7 LegendNANA
06:00 Legend Double Dagger -0.7 -4.0 78 31 32 16.1 101.37   -8 LegendNANA
07:00 Legend Double Dagger -0.2 -5.4 68 32 46 16.1 101.41   -8 LegendNANA
08:00 Legend Double Dagger -0.3 -4.6 73 32 32 16.1 101.43   -7 LegendNANA
09:00 Legend Double Dagger 0.3 -4.8 69 30 37 16.1 101.43     LegendNANA
10:00 Legend Double Dagger 0.4 -4.9 68 30 30 16.1 101.45     LegendNANA
11:00 Legend Double Dagger 0.8 -5.3 64 30 39 16.1 101.43     LegendNANA
12:00 Legend Double Dagger 1.5 -5.3 61 30 37 16.1 101.40     LegendNANA
13:00 Legend Double Dagger 2.0 -5.3 59 29 41 16.1 101.37     LegendNANA
14:00 Legend Double Dagger 2.5 -4.8 59 30 30 16.1 101.34     LegendNANA
15:00 Legend Double Dagger 2.0 -4.5 62 29 28 16.1 101.32     LegendNANA
16:00 Legend Double Dagger 1.8 -4.1 65 29 28 16.1 101.30     LegendNANA
17:00 Legend Double Dagger 1.5 -4.0 67 29 22 16.1 101.28     LegendNANA
18:00 Legend Double Dagger 1.5 -3.0 72 27 15 16.1 101.25     LegendNANA
19:00 Legend Double Dagger 0.1 -2.6 82 25 13 16.1 101.19     LegendNANA
20:00 Legend Double Dagger 0.1 -2.5 83 24 11 16.1 101.14     LegendNANA
21:00 Legend Double Dagger -0.4 -2.4 86 22 11 16.1 101.08   -4 LegendNANA
22:00 Legend Double Dagger -0.3 -2.2 87 24 13 16.1 101.01   -4 LegendNANA
23:00 Legend Double Dagger 0.2 -2.0 85 25 9 16.1 100.94     LegendNANA

Notes on Data Quality.

Legend

  • E = Estimated
  • M = Missing
  • NA = Not Available
  • ‡ = Partner data that is not subject to review by the National Climate Archives
Date modified: